Powrót do katalogu

FENGYUN 1C DEB

AktywnyPO
NORAD 31183·DEBRIS·🇨🇳 China

Wystrzelony May 10, 1999 z Taiyuan Satellite Launch Center

Loading…

Następne Przeloty (najbliższe 24 godziny)

TLE

ŚwieżeSource: Space-Track

Epoka: Sep 14, 2026, 12:34 UTC

1 31183U 99025BJM 26257.52425111  .00003080  00000-0  75206-3 0  9998
2 31183  99.0484 267.2513 0045482   1.9177 150.6847 14.52806095 14710

Śledź FENGYUN 1C DEB w czasie rzeczywistym z AllMySat

Download on the App Store